This is the latest recevied weather packets stored in our database for station/object 9M4GEK-3. If no packets are shown the sender has not sent any weather packets the latest 10 day(s).
| Time | Temp. | Humidity | Pressure | Rain* | Wind** | Luminosity | Snow |
|---|---|---|---|---|---|---|---|
| 1778294583 | 36.67° C | 49% | 1009.3 hPa | - | - | - | - |
| 1778293683 | 36.11° C | 52% | 1009.4 hPa | - | - | - | - |
| 1778292782 | 36.67° C | 52% | 1009.4 hPa | - | - | - | - |
| 1778291918 | 35.56° C | 57% | 1009.5 hPa | - | - | - | - |
| 1778291882 | 35.56° C | 57% | 1009.5 hPa | - | - | - | - |
| 1778291217 | 34.44° C | 59% | 1009.4 hPa | - | - | - | - |
| 1778290982 | 34.44° C | 59% | 1009.4 hPa | - | - | - | - |
| 1778290156 | 33.89° C | 61% | 1009.3 hPa | - | - | - | - |
| 1778290082 | 33.89° C | 61% | 1009.3 hPa | - | - | - | - |
| 1778289183 | 31.67° C | 66% | 1009.4 hPa | - | - | - | - |
| 1778288282 | 30.56° C | 69% | 1009.2 hPa | - | - | - | - |
| 1778287382 | 30° C | 71% | 1009.2 hPa | - | - | - | - |
| 1778286481 | 28.89° C | 74% | 1008.9 hPa | - | - | - | - |
| 1778285581 | 28.33° C | 77% | 1008.7 hPa | - | - | - | - |
| 1778284680 | 27.22° C | 79% | 1008.6 hPa | - | - | - | - |
| 1778283778 | 26.11° C | 82% | 1008.3 hPa | - | - | - | - |
| 1778282878 | 25.56° C | 84% | 1008.1 hPa | - | - | - | - |
| 1778282011 | 25° C | 86% | 1008.1 hPa | - | - | - | - |
| 1778281978 | 25° C | 86% | 1008.1 hPa | - | - | - | - |
| 1778281198 | 25° C | 86% | 1007.8 hPa | - | - | - | - |
| 1778281075 | 25° C | 86% | 1007.8 hPa | - | - | - | - |
| 1778280685 | 25° C | 86% | 1007.8 hPa | - | - | - | - |
| 1778279838 | 25° C | 86% | 1007.6 hPa | - | - | - | - |
| 1778279785 | 25° C | 86% | 1007.6 hPa | - | - | - | - |
| 1778278885 | 25° C | 86% | 1007.4 hPa | - | - | - | - |
* Rain since midnight (hover to see other rain measurements)
** Current wind speed in m/s (hover to see current wind gust speed)